Flag for Australia Weather past 2 weeks in Albury, New South Wales, Australia

Now
37 °F

Clear.


Feels Like: 37 °F
Forecast: 37 / 60 °F
Wind: No wind

Location: Albury Airport

Current Time: Sep 2, 2015 at 2:37:27 AM

Latest Report: Sep 2, 2015 at 2:00 AM


Visibility: 4 mi

Pressure: 30.04 "Hg

Humidity: 93%

Dew point: 36 °F

Location of AlburyLocation

Historic Weather in Albury — Graph

°F

Albury temperature yesterday

Maximum temperature yesterday: 57 °F (at 2:00 PM)
Minimum temperature yesterday: 34 °F (at 4:00 AM)
Average temperature yesterday: 45 °F

Past Weeks' High & Low Weather Summary

 TemperatureHumidityPressure
High68 °F (Aug 22, 2:00 PM)100% (Aug 18, 5:00 AM)30.36 "Hg (Aug 18, 5:00 AM)
Low32 °F (Aug 18, 5:00 AM)44% (Aug 29, 3:00 PM)29.95 "Hg (Sep 1, 4:00 PM)
Average49 °F81%30.14 "Hg
* Reported Aug 18 1:00 AM — Sep 2 1:00 AM, Albury, Weather by CustomWeather, © 2015

Note: Actual official high and low records may vary slightly from our data, if they occured in-between our weather recording intervals... More about our weather records

Advertising

Albury weather history for previous 24 hours

 ConditionsComfort  
Time TempWeatherWind HumidityBarometerVisibility
1:00 AM
Wed, Sep 2
39 °FClear.1 mph93%30.04 "HgN/A
12:00 AM41 °FClear.No wind93%30.04 "HgN/A
11:00 PM
Tue, Sep 1
41 °FClear.No wind93%30.04 "HgN/A
10:00 PM41 °FClear.1 mph93%30.01 "HgN/A
9:00 PM43 °FClear.1 mph93%30.01 "HgN/A
8:00 PM46 °FPassing clouds.No wind82%30.01 "HgN/A
7:00 PM48 °FClear.3 mph76%29.98 "HgN/A
6:00 PM54 °FClear.No wind58%29.98 "HgN/A
5:00 PM57 °FClear.No wind51%29.95 "HgN/A
4:00 PM57 °FSunny.6 mph55%29.95 "HgN/A
3:00 PM57 °FSunny.6 mph51%29.98 "HgN/A
2:00 PM57 °FSunny.8 mph55%29.98 "HgN/A
1:00 PM55 °FSunny.8 mph55%30.01 "HgN/A
12:00 PM54 °FScattered clouds.3 mph63%30.04 "HgN/A
11:00 AM50 °FSunny.1 mph76%30.07 "HgN/A
10:00 AM43 °FLow clouds.1 mph100%30.07 "HgN/A
9:00 AM41 °FLow clouds.5 mph100%30.07 "Hg2 mi
7:00 AM37 °FLow clouds.No wind100%30.04 "Hg5 mi
6:00 AM36 °FLow clouds.No wind100%30.04 "HgN/A
5:00 AM34 °FClear.No wind100%30.01 "HgN/A
4:00 AM34 °FClear.No wind100%30.01 "HgN/A
3:00 AM37 °FClear.No wind93%30.04 "HgN/A
2:00 AM37 °FClear.No wind100%30.04 "HgN/A
Weather by CustomWeather, © 2015

See weather overviewHow to use our weather pages